Location: Val-d'Or
(48.1170°N, 77.7670°W)
Time: 20:23:22
(UTC-04:00)

ISS - Pass Details

Date: 23 May 2018
Orbit: 402 x 407 km, 51.6° (Epoch: 26 May)

Event Time Altitude Azimuth Distance (km) Brightness Sun altitude
Rises 00:46:53 0° 281° (WNW) 2,319 0.2 -21.2°
Reaches altitude 10° 00:49:01 10° 289° (WNW) 1,459 -0.7 -21.2°
Maximum altitude 00:52:10 42° 2° (N) 584 -2.6 -21.2°
Drops below altitude 10° 00:55:18 10° 76° (ENE) 1,457 -0.9 -21.3°
Sets 00:57:26 0° 83° (E) 2,316 0.1 -21.3°
